Other Public Products
Issued by NWS Charleston, SC

Current Version | Previous Version | Text Only | Print | Product List | Glossary Off
Versions: 1 2 3 4 5 6 7 8 9 10 11 12 13 14 15 16 17 18 19 20 21 22 23 24 25 26 27 28 29 30 31 32 33 34 35 36 37 38 39 40 41 42 43 44 45 46 47 48 49 50

000
FPUS82 KCHS 210112
OPUCHS

TEST...KCHS/KSAV Gateway Observations...TEST
National Weather Service Charleston SC
800 PM EST MON NOV 20 2017

NOTE: "fair" indicates few or no clouds below 12,000 feet with no
significant weather and/or obstructions to visibility.

SCZ050-WAZ558-NCZ071-TXZ119-213-PAZ071-DCZ001-FLZ074-172-MI076-
NYZ176-178-MAZ016-IL014-TNZ027-NJZ106-GAZ044-MD014-210200-

...Gateway Observations for Charleston International...

CITY           SKY/WX    TMP DP  RH WIND       PRES   REMARKS
Chas Airport   PTCLDY    49  39  68 E3        30.25S
Seattle        MOCLDY    47  37  68 SW5       29.96R
Charlotte      CLOUDY    45  28  51 S5        30.22S
Dallas DFW     PTCLDY    58  33  39 S12       29.95F
Dallas Love    CLEAR     60  31  33 S14       29.98F
Philladelphia  CLEAR     43  25  49 SW7       30.16R
Wash National  CLEAR     45  26  47 S10       30.19R
Baltimore      PTCLDY    39  23  52 SW3       30.16S
Miami          MOCLDY    76  66  71 NE8       30.03S
Detroit        CLOUDY    42  29  59 S20       29.88S
Newark         PTCLDY    42  24  49 SW14      30.12R
Laguardia      PTCLDY    45  23  42 SW16G22   30.11R
J F K          PTCLDY    45  28  51 SW20G25   30.13R
Boston Logan   PTCLDY    40  23  50 SW12G22   30.01R WCI  33
Ft. Lauderdale CLOUDY    75  66  73 NE12      30.03R
Chicago O`Hare MOCLDY    48  32  53 S20G32    29.73S
Chicago Midway MOCLDY    47  34  60 S18G30    29.76S
Houston Bush   PTCLDY    57  49  74 SE8       30.07R
Houston Hobby  PTCLDY    58  51  78 E5        30.07R
Nashville      PTCLDY    42  28  57 S5        30.09F
Atlanta        CLOUDY    50  37  61 SE3       30.17R

$$

GAZ044-118-TXZ119-213-NCZ071-DCZ001-MDZ014-506-PAZ021-071-NJZ106-
NYZ176-178-MAZ106-OHZ011-021-055-MIZ076-KYZ091-ILZ014-INZ047-
MNZ060-ONZ431-210200-

...Gateway Observations for Savannah International...

CITY           SKY/WX    TMP DP  RH WIND       PRES   REMARKS
Savannah Arpt  PTCLDY    51  41  68 E7        30.23S
Atlanta        CLOUDY    50  37  61 SE3       30.17R
Charlotte      CLOUDY    45  28  51 S5        30.22S
Dallas DFW     PTCLDY    58  33  39 S12       29.95F
Houston Bush   PTCLDY    57  49  74 SE8       30.07R
Wash National  CLEAR     45  26  47 S10       30.19R
Wash Dulles    CLEAR     41  23  48 S6        30.17R
Baltimore      PTCLDY    39  23  52 SW3       30.16S
Philadelphia   CLEAR     43  25  49 SW7       30.16R
Newark         PTCLDY    42  24  49 SW14      30.12R
Laguardia      PTCLDY    45  23  42 SW16G22   30.11R
J F K          PTCLDY    45  28  51 SW20G25   30.13R
Boston         PTCLDY    40  23  50 SW12G22   30.01R WCI  33
Pittsburg      CLEAR     38  22  52 S8        30.05F WCI  32
Akron          CLEAR     39  23  52 S16G23    30.01F WCI  30
Cleveland      PTCLDY    42  25  50 S17G31    29.99S
Cincinnati     CLOUDY    36  28  73 S8        30.05F WCI  30
Columbus       CLOUDY    36  25  64 S6        30.06F WCI  31
Detroit        CLOUDY    42  29  59 S20       29.88S
Chicago O`Hare MOCLDY    48  32  53 S20G32    29.73S
Minneapolis    MOCLDY    45  29  53 SW8       29.46R
Indianapolis   PTCLDY    42  24  49 S13       29.97F
Toronto Canada PTCLDY    39  32  75 SW8       29.85F WCI  34

$$




USA.gov is the U.S. government's official web portal to all federal, state and local government web resources and services.